44.2°F
Current conditions from King Hill
Updated every 5 minutes
 
  Wednesday April 23, 2014

Station Historical Data
Daily Summary for April 29, 2012 Units:  English    Metric   Both
« Previous Day
Next Day »
Daily Weekly Monthly Yearly Custom
  High: Low: Average:
Temperature: 47.2 °F 29.5 °F 38.5 °F
Dew Point: 21.6 °F 12.3 °F 16.7 °F
Humidity: 69% 26% 43%
Wind Speed: 12.0mph 1.0mph 5.8mph
Wind Gust: 25.0mph - -
Wind- - NW
Pressure: 30.24 in 30.07 in -
Precipitation: 0.00 in    
Historical Graphs
 
 
Tabular Data for April 29, 2012
Time Temperature Dew Point Pressure Wind Wind Speed Wind Gust Humidity Daily Rainfall
00:04 34.4 °F 16.2 °F 30.09 in WSW 1.0 mph 6.0 mph 47% 0.00 in
00:10 34.4 °F 16.7 °F 30.09 in Calm   6.0 mph 48% 0.00 in
00:14 34.2 °F 16.5 °F 30.09 in Calm   6.0 mph 48% 0.00 in
00:19 33.9 °F 16.3 °F 30.09 in Calm   2.0 mph 48% 0.00 in
00:24 33.9 °F 16.3 °F 30.09 in WSW 1.0 mph 5.0 mph 48% 0.00 in
00:29 33.8 °F 16.2 °F 30.10 in Calm   5.0 mph 48% 0.00 in
00:34 33.9 °F 16.7 °F 30.09 in Calm   8.0 mph 49% 0.00 in
00:39 33.8 °F 16.7 °F 30.09 in Calm   8.0 mph 49% 0.00 in
00:44 33.6 °F 16.5 °F 30.09 in Calm   3.0 mph 49% 0.00 in
00:49 33.5 °F 16.4 °F 30.09 in Calm   2.0 mph 49% 0.00 in
00:54 33.4 °F 16.3 °F 30.09 in West 1.0 mph 4.0 mph 49% 0.00 in
00:59 33.2 °F 17.0 °F 30.09 in Calm   4.0 mph 51% 0.00 in
01:04 32.9 °F 16.7 °F 30.09 in Calm   2.0 mph 51% 0.00 in
01:09 32.7 °F 16.6 °F 30.09 in Calm   2.0 mph 51% 0.00 in
01:14 32.6 °F 16.5 °F 30.09 in Calm   1.0 mph 51% 0.00 in
01:19 32.6 °F 16.9 °F 30.09 in Calm   1.0 mph 52% 0.00 in
01:24 32.6 °F 16.9 °F 30.09 in Calm     52% 0.00 in
01:29 32.6 °F 17.4 °F 30.09 in Calm     53% 0.00 in
01:34 32.5 °F 17.3 °F 30.09 in Calm     53% 0.00 in
01:39 32.3 °F 17.5 °F 30.09 in Calm   3.0 mph 54% 0.00 in
01:44 32.2 °F 17.8 °F 30.09 in Calm   3.0 mph 55% 0.00 in
01:49 32.1 °F 17.7 °F 30.09 in Calm   1.0 mph 55% 0.00 in
01:54 32.0 °F 17.7 °F 30.09 in Calm     55% 0.00 in
01:59 32.0 °F 18.1 °F 30.09 in Calm   1.0 mph 56% 0.00 in
02:04 31.9 °F 18.0 °F 30.08 in Calm   4.0 mph 56% 0.00 in
02:09 31.8 °F 18.3 °F 30.08 in Calm   4.0 mph 57% 0.00 in
02:14 31.6 °F 18.1 °F 30.08 in Calm   1.0 mph 57% 0.00 in
02:19 31.5 °F 18.4 °F 30.09 in Calm   4.0 mph 58% 0.00 in
02:24 31.4 °F 18.3 °F 30.08 in West 1.0 mph 4.0 mph 58% 0.00 in
02:34 31.1 °F 18.4 °F 30.08 in Calm   2.0 mph 59% 0.00 in
02:39 30.9 °F 18.6 °F 30.08 in Calm   2.0 mph 60% 0.00 in
02:44 30.9 °F 18.6 °F 30.08 in Calm   2.0 mph 60% 0.00 in
02:49 31.0 °F 19.1 °F 30.08 in Calm   1.0 mph 61% 0.00 in
02:54 31.0 °F 19.1 °F 30.08 in Calm   1.0 mph 61% 0.00 in
02:59 31.1 °F 19.2 °F 30.08 in Calm   2.0 mph 61% 0.00 in
03:04 31.1 °F 19.2 °F 30.08 in Calm   2.0 mph 61% 0.00 in
03:09 31.0 °F 19.1 °F 30.07 in Calm     61% 0.00 in
03:14 31.1 °F 19.2 °F 30.07 in Calm   3.0 mph 61% 0.00 in
03:19 31.2 °F 19.3 °F 30.07 in Calm   3.0 mph 61% 0.00 in
03:24 31.1 °F 19.6 °F 30.07 in West 1.0 mph 5.0 mph 62% 0.00 in
03:29 31.1 °F 19.6 °F 30.07 in Calm   5.0 mph 62% 0.00 in
03:34 31.1 °F 19.6 °F 30.07 in Calm   2.0 mph 62% 0.00 in
03:39 31.2 °F 19.7 °F 30.07 in Calm   3.0 mph 62% 0.00 in
03:44 31.1 °F 20.0 °F 30.07 in Calm   3.0 mph 63% 0.00 in
03:49 31.0 °F 19.9 °F 30.07 in Calm   4.0 mph 63% 0.00 in
03:54 30.9 °F 19.8 °F 30.07 in West 1.0 mph 5.0 mph 63% 0.00 in
03:59 31.0 °F 19.9 °F 30.07 in Calm   5.0 mph 63% 0.00 in
04:04 31.1 °F 20.3 °F 30.07 in Calm   3.0 mph 64% 0.00 in
04:09 31.0 °F 20.3 °F 30.07 in Calm   3.0 mph 64% 0.00 in
04:14 31.0 °F 20.3 °F 30.07 in Calm   4.0 mph 64% 0.00 in
04:19 31.0 °F 20.3 °F 30.07 in Calm   4.0 mph 64% 0.00 in
04:24 31.0 °F 20.6 °F 30.07 in Calm   3.0 mph 65% 0.00 in
04:29 31.0 °F 20.6 °F 30.07 in Calm   2.0 mph 65% 0.00 in
04:34 30.9 °F 20.5 °F 30.07 in Calm   2.0 mph 65% 0.00 in
04:39 30.8 °F 20.8 °F 30.07 in Calm   2.0 mph 66% 0.00 in
04:44 30.6 °F 20.6 °F 30.07 in Calm   2.0 mph 66% 0.00 in
04:49 30.4 °F 20.8 °F 30.07 in Calm     67% 0.00 in
04:54 30.3 °F 20.7 °F 30.07 in Calm   2.0 mph 67% 0.00 in
04:59 30.2 °F 20.6 °F 30.07 in Calm   2.0 mph 67% 0.00 in
05:04 29.9 °F 20.6 °F 30.07 in Calm   1.0 mph 68% 0.00 in
05:09 29.7 °F 20.4 °F 30.07 in Calm   1.0 mph 68% 0.00 in
05:14 29.5 °F 20.6 °F 30.07 in Calm   2.0 mph 69% 0.00 in
05:19 29.7 °F 20.4 °F 30.07 in Calm   5.0 mph 68% 0.00 in
05:24 29.7 °F 20.4 °F 30.07 in Calm   5.0 mph 68% 0.00 in
05:29 29.7 °F 20.4 °F 30.07 in West 2.0 mph 5.0 mph 68% 0.00 in
05:34 29.8 °F 20.5 °F 30.07 in Calm   5.0 mph 68% 0.00 in
05:39 30.0 °F 20.7 °F 30.07 in Calm   4.0 mph 68% 0.00 in
05:44 30.1 °F 20.8 °F 30.07 in Calm   4.0 mph 68% 0.00 in
05:49 30.1 °F 20.5 °F 30.07 in West 2.0 mph 8.0 mph 67% 0.00 in
05:54 30.3 °F 20.7 °F 30.07 in West 1.0 mph 8.0 mph 67% 0.00 in
05:59 30.4 °F 20.8 °F 30.07 in Calm   4.0 mph 67% 0.00 in
06:04 30.5 °F 20.9 °F 30.07 in West 2.0 mph 6.0 mph 67% 0.00 in
06:09 31.0 °F 20.6 °F 30.07 in West 4.0 mph 9.0 mph 65% 0.00 in
06:14 31.6 °F 20.8 °F 30.07 in WNW 2.0 mph 9.0 mph 64% 0.00 in
06:19 31.7 °F 20.9 °F 30.07 in WNW 2.0 mph 7.0 mph 64% 0.00 in
06:24 32.1 °F 20.9 °F 30.07 in WNW 1.0 mph 6.0 mph 63% 0.00 in
06:29 32.3 °F 21.1 °F 30.07 in WNW 1.0 mph 6.0 mph 63% 0.00 in
06:34 32.6 °F 21.0 °F 30.08 in West 1.0 mph 8.0 mph 62% 0.00 in
06:39 32.9 °F 20.5 °F 30.08 in WNW 5.0 mph 12.0 mph 60% 0.00 in
06:44 33.0 °F 21.0 °F 30.08 in WNW 2.0 mph 12.0 mph 61% 0.00 in
06:49 33.0 °F 21.0 °F 30.08 in West 2.0 mph 6.0 mph 61% 0.00 in
06:54 33.0 °F 21.0 °F 30.08 in WNW 3.0 mph 9.0 mph 61% 0.00 in
06:59 33.2 °F 20.8 °F 30.08 in WNW 2.0 mph 11.0 mph 60% 0.00 in
07:04 33.3 °F 20.9 °F 30.08 in WNW 3.0 mph 11.0 mph 60% 0.00 in
07:09 33.4 °F 21.0 °F 30.09 in WNW 2.0 mph 7.0 mph 60% 0.00 in
07:14 33.5 °F 21.1 °F 30.09 in WNW 4.0 mph 8.0 mph 60% 0.00 in
07:19 33.7 °F 21.3 °F 30.09 in WNW 4.0 mph 13.0 mph 60% 0.00 in
07:24 34.1 °F 20.9 °F 30.09 in NW 5.0 mph 13.0 mph 58% 0.00 in
07:29 34.4 °F 21.6 °F 30.09 in WNW 2.0 mph 9.0 mph 59% 0.00 in
07:34 34.8 °F 21.5 °F 30.09 in WNW 3.0 mph 9.0 mph 58% 0.00 in
07:39 35.1 °F 21.4 °F 30.09 in NNW 3.0 mph 9.0 mph 57% 0.00 in
07:45 35.5 °F 20.9 °F 30.09 in NW 5.0 mph 13.0 mph 55% 0.00 in
07:54 36.0 °F 19.6 °F 30.09 in WNW 8.0 mph 14.0 mph 51% 0.00 in
07:59 35.8 °F 18.5 °F 30.09 in NW 6.0 mph 14.0 mph 49% 0.00 in
08:04 35.9 °F 17.6 °F 30.09 in NW 8.0 mph 16.0 mph 47% 0.00 in
08:09 36.4 °F 18.1 °F 30.09 in NW 4.0 mph 16.0 mph 47% 0.00 in
08:14 36.9 °F 18.5 °F 30.09 in NNW 4.0 mph 10.0 mph 47% 0.00 in
08:19 37.1 °F 17.7 °F 30.09 in WNW 8.0 mph 14.0 mph 45% 0.00 in
08:24 37.4 °F 19.0 °F 30.10 in NW 3.0 mph 14.0 mph 47% 0.00 in
08:29 36.9 °F 18.5 °F 30.10 in NW 5.0 mph 14.0 mph 47% 0.00 in
08:34 36.8 °F 16.9 °F 30.10 in WNW 10.0 mph 16.0 mph 44% 0.00 in
08:44 37.3 °F 17.9 °F 30.10 in NNW 6.0 mph 14.0 mph 45% 0.00 in
08:49 37.4 °F 18.5 °F 30.10 in NW 4.0 mph 14.0 mph 46% 0.00 in
08:54 38.1 °F 19.6 °F 30.10 in NNW 3.0 mph 14.0 mph 47% 0.00 in
08:59 38.0 °F 19.6 °F 30.10 in NNW 2.0 mph 17.0 mph 47% 0.00 in
09:04 38.4 °F 18.9 °F 30.11 in NNW 7.0 mph 17.0 mph 45% 0.00 in
09:09 38.3 °F 17.2 °F 30.10 in NNW 8.0 mph 17.0 mph 42% 0.00 in
09:14 38.5 °F 17.4 °F 30.10 in NNW 2.0 mph 17.0 mph 42% 0.00 in
09:24 38.5 °F 17.9 °F 30.11 in NNW 8.0 mph 15.0 mph 43% 0.00 in
09:29 38.7 °F 17.6 °F 30.11 in NW 7.0 mph 16.0 mph 42% 0.00 in
09:34 39.1 °F 17.9 °F 30.11 in NW 6.0 mph 16.0 mph 42% 0.00 in
09:39 38.8 °F 17.7 °F 30.11 in WNW 8.0 mph 18.0 mph 42% 0.00 in
09:44 38.9 °F 17.8 °F 30.11 in WNW 7.0 mph 18.0 mph 42% 0.00 in
09:49 39.4 °F 18.2 °F 30.11 in NW 8.0 mph 16.0 mph 42% 0.00 in
09:59 38.6 °F 16.9 °F 30.11 in NW 9.0 mph 23.0 mph 41% 0.00 in
10:04 39.3 °F 15.8 °F 30.11 in NW 6.0 mph 20.0 mph 38% 0.00 in
10:09 39.8 °F 15.6 °F 30.11 in NNW 5.0 mph 16.0 mph 37% 0.00 in
10:14 40.2 °F 14.7 °F 30.11 in NW 7.0 mph 14.0 mph 35% 0.00 in
10:19 40.3 °F 14.8 °F 30.11 in WNW 12.0 mph 17.0 mph 35% 0.00 in
10:24 40.7 °F 14.5 °F 30.10 in NNW 6.0 mph 17.0 mph 34% 0.00 in
10:29 41.1 °F 14.9 °F 30.11 in NW 7.0 mph 16.0 mph 34% 0.00 in
10:34 40.1 °F 14.6 °F 30.11 in NNW 6.0 mph 17.0 mph 35% 0.00 in
10:39 40.7 °F 15.2 °F 30.11 in NNW 7.0 mph 17.0 mph 35% 0.00 in
10:44 41.1 °F 16.2 °F 30.10 in NNW 4.0 mph 15.0 mph 36% 0.00 in
10:49 41.3 °F 14.3 °F 30.11 in NW 8.0 mph 16.0 mph 33% 0.00 in
10:54 41.3 °F 13.6 °F 30.11 in NW 9.0 mph 16.0 mph 32% 0.00 in
10:59 41.4 °F 15.1 °F 30.10 in WNW 8.0 mph 16.0 mph 34% 0.00 in
11:04 41.4 °F 13.0 °F 30.10 in NW 7.0 mph 16.0 mph 31% 0.00 in
11:09 41.0 °F 14.8 °F 30.10 in WNW 8.0 mph 21.0 mph 34% 0.00 in
11:14 41.4 °F 12.3 °F 30.10 in NW 10.0 mph 21.0 mph 30% 0.00 in
11:19 41.5 °F 13.8 °F 30.10 in NW 7.0 mph 20.0 mph 32% 0.00 in
11:24 42.2 °F 15.1 °F 30.10 in NW 4.0 mph 17.0 mph 33% 0.00 in
11:34 42.7 °F 12.6 °F 30.10 in NNW 8.0 mph 21.0 mph 29% 0.00 in
11:39 42.5 °F 14.7 °F 30.10 in NNW 6.0 mph 21.0 mph 32% 0.00 in
11:44 43.0 °F 16.5 °F 30.10 in North 6.0 mph 15.0 mph 34% 0.00 in
11:49 43.3 °F 16.8 °F 30.11 in NNW 5.0 mph 15.0 mph 34% 0.00 in
11:54 43.4 °F 16.2 °F 30.11 in NNW 5.0 mph 14.0 mph 33% 0.00 in
11:59 43.6 °F 16.4 °F 30.11 in NNW 10.0 mph 23.0 mph 33% 0.00 in
12:04 43.0 °F 15.1 °F 30.11 in NW 5.0 mph 23.0 mph 32% 0.00 in
12:09 42.9 °F 13.6 °F 30.11 in NNW 10.0 mph 22.0 mph 30% 0.00 in
12:14 43.0 °F 16.5 °F 30.11 in NNW 6.0 mph 22.0 mph 34% 0.00 in
12:19 43.3 °F 15.4 °F 30.11 in NNW 9.0 mph 17.0 mph 32% 0.00 in
12:24 43.3 °F 16.1 °F 30.11 in NNW 5.0 mph 17.0 mph 33% 0.00 in
12:29 43.1 °F 13.0 °F 30.11 in WNW 3.0 mph 16.0 mph 29% 0.00 in
12:39 43.3 °F 17.5 °F 30.09 in NNW 4.0 mph 16.0 mph 35% 0.00 in
12:49 43.4 °F 18.2 °F 30.10 in North 7.0 mph 16.0 mph 36% 0.00 in
12:59 43.1 °F 15.2 °F 30.10 in NW 8.0 mph 23.0 mph 32% 0.00 in
13:04 43.6 °F 15.7 °F 30.10 in NNW 6.0 mph 19.0 mph 32% 0.00 in
13:09 44.1 °F 15.4 °F 30.10 in WNW 8.0 mph 16.0 mph 31% 0.00 in
13:14 43.9 °F 15.9 °F 30.10 in NW 12.0 mph 20.0 mph 32% 0.00 in
13:19 43.1 °F 15.2 °F 30.10 in WNW 8.0 mph 23.0 mph 32% 0.00 in
13:29 43.6 °F 14.2 °F 30.11 in NNW 6.0 mph 25.0 mph 30% 0.00 in
13:34 44.0 °F 16.0 °F 30.11 in NNW 7.0 mph 19.0 mph 32% 0.00 in
13:39 44.8 °F 16.7 °F 30.11 in NNW 6.0 mph 19.0 mph 32% 0.00 in
13:44 45.5 °F 16.6 °F 30.11 in NNW 5.0 mph 15.0 mph 31% 0.00 in
13:49 45.6 °F 16.7 °F 30.11 in NW 5.0 mph 13.0 mph 31% 0.00 in
13:54 45.2 °F 16.3 °F 30.11 in NNW 4.0 mph 22.0 mph 31% 0.00 in
13:59 45.0 °F 15.4 °F 30.10 in NW 8.0 mph 22.0 mph 30% 0.00 in
14:04 45.3 °F 17.2 °F 30.12 in NNW 7.0 mph 19.0 mph 32% 0.00 in
14:09 45.1 °F 16.3 °F 30.11 in NNW 8.0 mph 21.0 mph 31% 0.00 in
14:14 44.3 °F 15.6 °F 30.11 in WNW 8.0 mph 21.0 mph 31% 0.00 in
14:19 44.7 °F 17.3 °F 30.11 in NNW 8.0 mph 19.0 mph 33% 0.00 in
14:29 45.3 °F 15.7 °F 30.12 in NNW 7.0 mph 21.0 mph 30% 0.00 in
14:34 45.4 °F 15.0 °F 30.11 in NNW 7.0 mph 21.0 mph 29% 0.00 in
14:39 45.0 °F 13.8 °F 30.11 in NW 9.0 mph 21.0 mph 28% 0.00 in
14:44 45.8 °F 16.9 °F 30.11 in NNW 8.0 mph 21.0 mph 31% 0.00 in
14:49 46.1 °F 15.6 °F 30.11 in NNW 7.0 mph 17.0 mph 29% 0.00 in
14:54 46.0 °F 15.5 °F 30.11 in NNW 8.0 mph 19.0 mph 29% 0.00 in
14:59 46.0 °F 15.5 °F 30.11 in North 8.0 mph 19.0 mph 29% 0.00 in
15:04 46.1 °F 17.1 °F 30.11 in North 7.0 mph 22.0 mph 31% 0.00 in
15:09 46.5 °F 15.9 °F 30.11 in NNW 9.0 mph 22.0 mph 29% 0.00 in
15:14 46.9 °F 14.6 °F 30.11 in NNW 8.0 mph 18.0 mph 27% 0.00 in
15:19 46.7 °F 16.9 °F 30.11 in NNW 4.0 mph 17.0 mph 30% 0.00 in
15:24 46.4 °F 14.2 °F 30.11 in NW 12.0 mph 18.0 mph 27% 0.00 in
15:29 46.0 °F 16.3 °F 30.12 in NNW 11.0 mph 21.0 mph 30% 0.00 in
15:34 46.2 °F 14.9 °F 30.11 in NW 9.0 mph 21.0 mph 28% 0.00 in
15:39 46.4 °F 17.4 °F 30.11 in NNW 7.0 mph 20.0 mph 31% 0.00 in
15:44 46.5 °F 16.7 °F 30.12 in NW 11.0 mph 20.0 mph 30% 0.00 in
15:49 46.8 °F 17.0 °F 30.12 in NNW 6.0 mph 19.0 mph 30% 0.00 in
15:54 46.7 °F 16.1 °F 30.12 in NW 6.0 mph 18.0 mph 29% 0.00 in
15:59 46.6 °F 15.2 °F 30.12 in NNW 10.0 mph 20.0 mph 28% 0.00 in
16:04 46.9 °F 17.8 °F 30.12 in North 4.0 mph 20.0 mph 31% 0.00 in
16:09 46.7 °F 14.5 °F 30.12 in NW 12.0 mph 21.0 mph 27% 0.00 in
16:14 46.2 °F 15.7 °F 30.12 in NNW 6.0 mph 23.0 mph 29% 0.00 in
16:19 46.6 °F 16.0 °F 30.13 in NNW 8.0 mph 23.0 mph 29% 0.00 in
16:24 46.4 °F 14.2 °F 30.13 in NW 10.0 mph 20.0 mph 27% 0.00 in
16:29 46.1 °F 15.6 °F 30.13 in NW 8.0 mph 17.0 mph 29% 0.00 in
16:34 45.4 °F 15.0 °F 30.12 in NW 9.0 mph 21.0 mph 29% 0.00 in
16:39 46.4 °F 15.9 °F 30.13 in North 6.0 mph 21.0 mph 29% 0.00 in
16:44 46.9 °F 16.3 °F 30.12 in NNW 5.0 mph 16.0 mph 29% 0.00 in
16:49 47.2 °F 15.7 °F 30.13 in NW 7.0 mph 16.0 mph 28% 0.00 in
16:54 46.4 °F 15.0 °F 30.13 in NW 9.0 mph 22.0 mph 28% 0.00 in
17:04 46.2 °F 15.7 °F 30.13 in WNW 11.0 mph 19.0 mph 29% 0.00 in
17:09 46.7 °F 14.5 °F 30.13 in NW 7.0 mph 19.0 mph 27% 0.00 in
17:14 46.3 °F 13.3 °F 30.13 in NW 12.0 mph 22.0 mph 26% 0.00 in
17:19 45.9 °F 14.6 °F 30.13 in NNW 7.0 mph 22.0 mph 28% 0.00 in
17:24 46.1 °F 14.8 °F 30.14 in NNW 9.0 mph 21.0 mph 28% 0.00 in
17:29 46.2 °F 14.9 °F 30.14 in NNW 8.0 mph 19.0 mph 28% 0.00 in
17:39 45.5 °F 12.6 °F 30.14 in NW 8.0 mph 21.0 mph 26% 0.00 in
17:44 45.6 °F 14.4 °F 30.14 in North 5.0 mph 19.0 mph 28% 0.00 in
17:49 46.0 °F 13.9 °F 30.14 in NNW 6.0 mph 15.0 mph 27% 0.00 in
17:54 45.6 °F 13.5 °F 30.15 in NW 9.0 mph 18.0 mph 27% 0.00 in
17:59 45.4 °F 14.2 °F 30.14 in NW 8.0 mph 18.0 mph 28% 0.00 in
18:04 45.5 °F 12.6 °F 30.14 in NW 7.0 mph 15.0 mph 26% 0.00 in
18:09 45.4 °F 13.4 °F 30.15 in NW 11.0 mph 19.0 mph 27% 0.00 in
18:14 45.4 °F 14.2 °F 30.15 in NNW 6.0 mph 20.0 mph 28% 0.00 in
18:19 45.7 °F 14.4 °F 30.14 in NW 5.0 mph 20.0 mph 28% 0.00 in
18:24 45.9 °F 13.8 °F 30.15 in NW 5.0 mph 13.0 mph 27% 0.00 in
18:29 45.9 °F 14.6 °F 30.15 in NNW 3.0 mph 13.0 mph 28% 0.00 in
18:34 45.4 °F 14.2 °F 30.15 in NW 6.0 mph 16.0 mph 28% 0.00 in
18:39 45.0 °F 13.8 °F 30.15 in NW 9.0 mph 20.0 mph 28% 0.00 in
18:44 44.8 °F 13.7 °F 30.15 in NW 8.0 mph 20.0 mph 28% 0.00 in
18:49 44.6 °F 13.5 °F 30.15 in NW 4.0 mph 17.0 mph 28% 0.00 in
18:54 44.6 °F 13.5 °F 30.15 in NW 9.0 mph 17.0 mph 28% 0.00 in
18:59 44.3 °F 14.0 °F 30.15 in NW 7.0 mph 19.0 mph 29% 0.00 in
19:04 44.2 °F 13.9 °F 30.15 in NW 6.0 mph 19.0 mph 29% 0.00 in
19:09 44.0 °F 13.8 °F 30.15 in NW 4.0 mph 13.0 mph 29% 0.00 in
19:14 43.7 °F 13.5 °F 30.15 in NW 7.0 mph 17.0 mph 29% 0.00 in
19:19 43.4 °F 13.2 °F 30.16 in NW 8.0 mph 17.0 mph 29% 0.00 in
19:24 43.1 °F 13.8 °F 30.15 in NNW 5.0 mph 15.0 mph 30% 0.00 in
19:29 42.9 °F 13.6 °F 30.16 in NNW 4.0 mph 17.0 mph 30% 0.00 in
19:34 42.6 °F 14.1 °F 30.16 in NW 4.0 mph 17.0 mph 31% 0.00 in
19:39 42.4 °F 13.1 °F 30.16 in NW 7.0 mph 14.0 mph 30% 0.00 in
19:44 42.1 °F 13.6 °F 30.16 in NNW 5.0 mph 14.0 mph 31% 0.00 in
19:49 41.8 °F 13.4 °F 30.16 in NW 3.0 mph 13.0 mph 31% 0.00 in
19:54 41.5 °F 13.1 °F 30.16 in NW 5.0 mph 13.0 mph 31% 0.00 in
19:59 41.3 °F 12.9 °F 30.16 in NW 6.0 mph 13.0 mph 31% 0.00 in
20:04 41.2 °F 12.8 °F 30.17 in NW 3.0 mph 11.0 mph 31% 0.00 in
20:09 41.1 °F 12.7 °F 30.17 in NNW 4.0 mph 11.0 mph 31% 0.00 in
20:14 40.9 °F 12.6 °F 30.17 in NW 2.0 mph 11.0 mph 31% 0.00 in
20:19 40.7 °F 13.1 °F 30.17 in NNW 5.0 mph 10.0 mph 32% 0.00 in
20:24 40.6 °F 13.0 °F 30.17 in NW 3.0 mph 10.0 mph 32% 0.00 in
20:29 40.4 °F 13.6 °F 30.17 in NW 3.0 mph 9.0 mph 33% 0.00 in
20:34 40.4 °F 13.6 °F 30.18 in NW 4.0 mph 11.0 mph 33% 0.00 in
20:39 40.3 °F 13.5 °F 30.18 in NW 4.0 mph 11.0 mph 33% 0.00 in
20:44 40.1 °F 13.3 °F 30.18 in NNW 2.0 mph 9.0 mph 33% 0.00 in
20:49 39.9 °F 13.8 °F 30.18 in NNW 2.0 mph 9.0 mph 34% 0.00 in
20:54 39.7 °F 13.6 °F 30.19 in Calm   8.0 mph 34% 0.00 in
20:59 39.4 °F 14.0 °F 30.19 in Calm   3.0 mph 35% 0.00 in
21:04 39.2 °F 13.8 °F 30.19 in NW 1.0 mph 5.0 mph 35% 0.00 in
21:09 39.0 °F 13.7 °F 30.19 in Calm   5.0 mph 35% 0.00 in
21:14 38.9 °F 14.2 °F 30.20 in Calm   6.0 mph 36% 0.00 in
21:19 38.7 °F 14.7 °F 30.20 in Calm   6.0 mph 37% 0.00 in
21:24 38.4 °F 15.0 °F 30.20 in NNW 1.0 mph 5.0 mph 38% 0.00 in
21:29 38.3 °F 14.9 °F 30.20 in Calm   5.0 mph 38% 0.00 in
21:34 38.0 °F 15.2 °F 30.21 in Calm   1.0 mph 39% 0.00 in
21:39 37.7 °F 14.4 °F 30.21 in Calm   1.0 mph 38% 0.00 in
21:44 37.5 °F 15.4 °F 30.21 in Calm     40% 0.00 in
21:54 37.3 °F 15.2 °F 30.21 in Calm     40% 0.00 in
21:59 37.1 °F 15.0 °F 30.21 in Calm   3.0 mph 40% 0.00 in
22:04 37.0 °F 14.9 °F 30.22 in Calm   3.0 mph 40% 0.00 in
22:09 37.0 °F 14.9 °F 30.22 in Calm   4.0 mph 40% 0.00 in
22:14 37.1 °F 15.6 °F 30.22 in Calm   4.0 mph 41% 0.00 in
22:19 37.0 °F 14.9 °F 30.22 in Calm   8.0 mph 40% 0.00 in
22:24 37.0 °F 15.5 °F 30.22 in Calm   8.0 mph 41% 0.00 in
22:29 36.9 °F 15.4 °F 30.22 in Calm   3.0 mph 41% 0.00 in
22:34 36.7 °F 15.2 °F 30.22 in Calm   3.0 mph 41% 0.00 in
22:44 37.1 °F 16.1 °F 30.23 in Calm   12.0 mph 42% 0.00 in
22:49 36.9 °F 15.9 °F 30.23 in Calm   12.0 mph 42% 0.00 in
22:54 36.9 °F 15.9 °F 30.23 in NW 2.0 mph 9.0 mph 42% 0.00 in
22:59 37.1 °F 15.6 °F 30.23 in NW 1.0 mph 9.0 mph 41% 0.00 in
23:04 37.3 °F 15.7 °F 30.23 in NW 1.0 mph 7.0 mph 41% 0.00 in
23:09 37.3 °F 16.8 °F 30.23 in Calm   7.0 mph 43% 0.00 in
23:14 36.9 °F 16.5 °F 30.23 in Calm   4.0 mph 43% 0.00 in
23:19 36.6 °F 16.7 °F 30.23 in Calm   2.0 mph 44% 0.00 in
23:24 36.3 °F 15.9 °F 30.23 in Calm   5.0 mph 43% 0.00 in
23:29 36.2 °F 16.4 °F 30.23 in NNW 1.0 mph 5.0 mph 44% 0.00 in
23:34 36.3 °F 16.5 °F 30.24 in Calm   4.0 mph 44% 0.00 in
23:39 36.4 °F 16.6 °F 30.24 in Calm   4.0 mph 44% 0.00 in
23:44 36.2 °F 16.4 °F 30.24 in Calm   4.0 mph 44% 0.00 in
23:49 36.1 °F 16.8 °F 30.24 in Calm   6.0 mph 45% 0.00 in
23:54 36.0 °F 16.7 °F 30.24 in Calm   6.0 mph 45% 0.00 in
23:59 35.7 °F 16.9 °F 30.24 in Calm   3.0 mph 46% 0.00 in
Westford Weather
Compliments of Weather Underground

 
 
Current Radar Loop:

Copyright © WestfordWeather.net 2007-2014. All rights reserved.